| time (UTC) | temp F | wind direction | speed MPH | gust MPH | rain 1hr in | rain 24hr in | rain mn in | humidity % | barometer mb |
| 20260510224406 | 81 | 287 | 2.0 | 5.0 | 0.00 | 0.00 | 0.00 | 40 | 1015.3 |
| 20260510223900 | 81 | 319 | 1.0 | 5.0 | 0.00 | 0.00 | 0.00 | 38 | 1015.3 |
| 20260510222848 | 81 | 279 | 1.0 | 3.0 | 0.00 | 0.00 | 0.00 | 36 | 1015.3 |
| 20260510222342 | 81 | 279 | 2.0 | 3.0 | 0.00 | 0.00 | 0.00 | 37 | 1015.3 |
| 20260510221835 | 81 | 270 | 2.0 | 6.0 | 0.00 | 0.00 | 0.00 | 36 | 1015.3 |
| 20260510221333 | 81 | 288 | 2.0 | 6.0 | 0.00 | 0.00 | 0.00 | 36 | 1015.3 |
| 20260510220834 | 81 | 281 | 1.0 | 4.0 | 0.00 | 0.00 | 0.00 | 34 | 1015.3 |
| 20260510220332 | 81 | 281 | 1.0 | 4.0 | 0.00 | 0.00 | 0.00 | 34 | 1015.2 |
| 20260510215833 | 81 | 290 | 2.0 | 7.0 | 0.00 | 0.00 | 0.00 | 35 | 1015.3 |
| 20260510215332 | 82 | 290 | 2.0 | 7.0 | 0.00 | 0.00 | 0.00 | 34 | 1015.2 |
| 20260510214832 | 82 | 244 | 1.0 | 5.0 | 0.00 | 0.00 | 0.00 | 34 | 1015.2 |
| 20260510214332 | 82 | 332 | 2.0 | 7.0 | 0.00 | 0.00 | 0.00 | 33 | 1015.2 |
| 20260510213831 | 82 | 336 | 3.0 | 7.0 | 0.00 | 0.00 | 0.00 | 34 | 1015.3 |
| 20260510213331 | 82 | 259 | 2.0 | 8.0 | 0.00 | 0.00 | 0.00 | 34 | 1015.2 |
| 20260510213050 | 82 | 310 | 3.0 | 8.0 | 0.00 | 0.00 | 0.00 | 31 | 1015.3 |
| 20260510212544 | 82 | 317 | 2.0 | 5.0 | 0.00 | 0.00 | 0.00 | 32 | 1015.2 |
| 20260510212046 | 82 | 344 | 3.0 | 7.0 | 0.00 | 0.00 | 0.00 | 33 | 1015.1 |
| 20260510211545 | 82 | 24 | 3.0 | 7.0 | 0.00 | 0.00 | 0.00 | 34 | 1015.1 |
| 20260510210825 | 83 | 265 | 4.0 | 12.0 | 0.00 | 0.00 | 0.00 | 34 | 1015.1 |
| 20260510210326 | 83 | 294 | 4.0 | 12.0 | 0.00 | 0.00 | 0.00 | 33 | 1015.1 |
| 20260510205825 | 83 | 321 | 3.0 | 7.0 | 0.00 | 0.00 | 0.00 | 34 | 1015.1 |
| 20260510205326 | 83 | 280 | 2.0 | 7.0 | 0.00 | 0.00 | 0.00 | 32 | 1015.1 |
| 20260510205044 | 83 | 252 | 2.0 | 7.0 | 0.00 | 0.00 | 0.00 | 33 | 1015.1 |
| 20260510204321 | 83 | 327 | 3.0 | 7.0 | 0.00 | 0.00 | 0.00 | 32 | 1015.1 |
| 20260510203820 | 84 | 283 | 2.0 | 7.0 | 0.00 | 0.00 | 0.00 | 31 | 1015.1 |
| 20260510203317 | 84 | 319 | 2.0 | 7.0 | 0.00 | 0.00 | 0.00 | 32 | 1015.2 |
| 20260510202818 | 84 | 320 | 3.0 | 8.0 | 0.00 | 0.00 | 0.00 | 32 | 1015.2 |
| 20260510202316 | 85 | 231 | 4.0 | 13.0 | 0.00 | 0.00 | 0.00 | 34 | 1015.3 |
| 20260510201814 | 85 | 307 | 4.0 | 13.0 | 0.00 | 0.00 | 0.00 | 32 | 1015.2 |
| 20260510201534 | 85 | 69 | 3.0 | 11.0 | 0.00 | 0.00 | 0.00 | 31 | 1015.2 |
| 20260510200812 | 85 | 234 | 2.0 | 8.0 | 0.00 | 0.00 | 0.00 | 35 | 1015.3 |
| 20260510200312 | 85 | 313 | 3.0 | 8.0 | 0.00 | 0.00 | 0.00 | 33 | 1015.3 |
| 20260510195812 | 85 | 331 | 3.0 | 5.0 | 0.00 | 0.00 | 0.00 | 30 | 1015.4 |
| 20260510195312 | 85 | 307 | 2.0 | 5.0 | 0.00 | 0.00 | 0.00 | 30 | 1015.4 |
| 20260510194812 | 85 | 130 | 2.0 | 5.0 | 0.00 | 0.00 | 0.00 | 34 | 1015.4 |
| 20260510194311 | 85 | 229 | 4.0 | 8.0 | 0.00 | 0.00 | 0.00 | 36 | 1015.5 |
| 20260510193812 | 85 | 329 | 4.0 | 8.0 | 0.00 | 0.00 | 0.00 | 33 | 1015.5 |
| 20260510193311 | 85 | 234 | 3.0 | 9.0 | 0.00 | 0.00 | 0.00 | 31 | 1015.6 |
| 20260510192814 | 85 | 240 | 3.0 | 9.0 | 0.00 | 0.00 | 0.00 | 36 | 1015.6 |
| 20260510192313 | 85 | 329 | 2.0 | 6.0 | 0.00 | 0.00 | 0.00 | 34 | 1015.5 |
| 20260510191813 | 85 | 238 | 3.0 | 8.0 | 0.00 | 0.00 | 0.00 | 34 | 1015.6 |
| 20260510191532 | 85 | 229 | 2.0 | 8.0 | 0.00 | 0.00 | 0.00 | 32 | 1015.6 |
| 20260510190809 | 85 | 333 | 3.0 | 9.0 | 0.00 | 0.00 | 0.00 | 33 | 1015.6 |
| 20260510190538 | 85 | 271 | 3.0 | 9.0 | 0.00 | 0.00 | 0.00 | 32 | 1015.7 |
| 20260510185810 | 85 | 317 | 2.0 | 6.0 | 0.00 | 0.00 | 0.00 | 32 | 1015.7 |
| 20260510185308 | 85 | 347 | 3.0 | 5.0 | 0.00 | 0.00 | 0.00 | 33 | 1015.6 |
| 20260510184808 | 85 | 263 | 3.0 | 6.0 | 0.00 | 0.00 | 0.00 | 32 | 1015.7 |
| 20260510184308 | 85 | 278 | 2.0 | 6.0 | 0.00 | 0.00 | 0.00 | 33 | 1015.6 |
| 20260510184031 | 85 | 286 | 2.0 | 6.0 | 0.00 | 0.00 | 0.00 | 35 | 1015.7 |
| 20260510183308 | 84 | 273 | 2.0 | 5.0 | 0.00 | 0.00 | 0.00 | 37 | 1015.8 |
| 20260510182809 | 84 | 118 | 2.0 | 7.0 | 0.00 | 0.00 | 0.00 | 37 | 1015.8 |
| 20260510182308 | 83 | 242 | 2.0 | 7.0 | 0.00 | 0.00 | 0.00 | 37 | 1015.9 |
| 20260510181808 | 83 | 11 | 2.0 | 6.0 | 0.00 | 0.00 | 0.00 | 37 | 1015.8 |
| 20260510181307 | 83 | 5 | 2.0 | 6.0 | 0.00 | 0.00 | 0.00 | 36 | 1015.9 |
| 20260510180807 | 83 | 0 | 2.0 | 5.0 | 0.00 | 0.00 | 0.00 | 36 | 1016.0 |
| 20260510180307 | 83 | 5 | 3.0 | 6.0 | 0.00 | 0.00 | 0.00 | 38 | 1016.0 |
| 20260510175807 | 83 | 240 | 2.0 | 6.0 | 0.00 | 0.00 | 0.00 | 40 | 1016.0 |
| 20260510175307 | 83 | 355 | 2.0 | 6.0 | 0.00 | 0.00 | 0.00 | 37 | 1016.0 |
| 20260510174807 | 83 | 325 | 2.0 | 8.0 | 0.00 | 0.00 | 0.00 | 34 | 1016.0 |
| 20260510174307 | 83 | 355 | 2.0 | 8.0 | 0.00 | 0.00 | 0.00 | 37 | 1016.1 |
| 20260510173807 | 83 | 94 | 2.0 | 4.0 | 0.00 | 0.00 | 0.00 | 36 | 1016.1 |
| 20260510173308 | 83 | 343 | 2.0 | 4.0 | 0.00 | 0.00 | 0.00 | 36 | 1016.2 |
| 20260510172804 | 83 | 328 | 2.0 | 4.0 | 0.00 | 0.00 | 0.00 | 39 | 1016.3 |
| 20260510172529 | 82 | 267 | 3.0 | 5.0 | 0.00 | 0.00 | 0.00 | 36 | 1016.4 |
| 20260510171804 | 82 | 13 | 4.0 | 9.0 | 0.00 | 0.00 | 0.00 | 36 | 1016.5 |
| 20260510171300 | 83 | 340 | 4.0 | 9.0 | 0.00 | 0.00 | 0.00 | 36 | 1016.4 |
| 20260510171023 | 83 | 338 | 3.0 | 8.0 | 0.00 | 0.00 | 0.00 | 40 | 1016.5 |
| 20260510170258 | 83 | 327 | 2.0 | 8.0 | 0.00 | 0.00 | 0.00 | 39 | 1016.6 |
| 20260510165758 | 83 | 231 | 2.0 | 5.0 | 0.00 | 0.00 | 0.00 | 40 | 1016.6 |
| 20260510165255 | 83 | 323 | 2.0 | 5.0 | 0.00 | 0.00 | 0.00 | 38 | 1016.6 |
| 20260510165021 | 82 | 236 | 3.0 | 5.0 | 0.00 | 0.00 | 0.00 | 43 | 1016.7 |
| 20260510164256 | 82 | 235 | 2.0 | 5.0 | 0.00 | 0.00 | 0.00 | 39 | 1016.7 |
| 20260510163756 | 82 | 25 | 2.0 | 4.0 | 0.00 | 0.00 | 0.00 | 41 | 1016.7 |
| 20260510163253 | 81 | 34 | 2.0 | 4.0 | 0.00 | 0.00 | 0.00 | 40 | 1016.7 |
| 20260510163022 | 81 | 222 | 3.0 | 7.0 | 0.00 | 0.00 | 0.00 | 41 | 1016.6 |
| 20260510162246 | 81 | 95 | 3.0 | 7.0 | 0.00 | 0.00 | 0.00 | 39 | 1016.6 |
| 20260510161757 | 80 | 217 | 2.0 | 7.0 | 0.00 | 0.00 | 0.00 | 44 | 1016.6 |
| 20260510161235 | 80 | 38 | 2.0 | 4.0 | 0.00 | 0.00 | 0.00 | 40 | 1016.7 |
| 20260510160729 | 80 | 48 | 2.0 | 4.0 | 0.00 | 0.00 | 0.00 | 41 | 1016.8 |
| 20260510160223 | 80 | 17 | 2.0 | 4.0 | 0.00 | 0.00 | 0.00 | 40 | 1016.8 |
| 20260510155716 | 80 | 88 | 2.0 | 4.0 | 0.00 | 0.00 | 0.00 | 40 | 1016.9 |
| 20260510155211 | 80 | 91 | 2.0 | 6.0 | 0.00 | 0.00 | 0.00 | 41 | 1016.8 |
| 20260510154704 | 79 | 86 | 2.0 | 6.0 | 0.00 | 0.00 | 0.00 | 42 | 1016.8 |
| 20260510154424 | 79 | 150 | 1.0 | 3.0 | 0.00 | 0.00 | 0.00 | 45 | 1016.7 |
| 20260510153652 | 78 | 348 | 1.0 | 4.0 | 0.00 | 0.00 | 0.00 | 42 | 1016.8 |
| 20260510153410 | 78 | 205 | 2.0 | 6.0 | 0.00 | 0.00 | 0.00 | 44 | 1016.8 |
| 20260510152859 | 78 | 355 | 2.0 | 6.0 | 0.00 | 0.00 | 0.00 | 43 | 1016.8 |
| 20260510152133 | 78 | 284 | 1.0 | 3.0 | 0.00 | 0.00 | 0.00 | 46 | 1016.8 |
| 20260510151626 | 77 | 86 | 1.0 | 6.0 | 0.00 | 0.00 | 0.00 | 48 | 1016.7 |
| 20260510151121 | 77 | 335 | 2.0 | 6.0 | 0.00 | 0.00 | 0.00 | 46 | 1016.7 |
| 20260510150615 | 76 | 5 | 2.0 | 4.0 | 0.00 | 0.00 | 0.00 | 47 | 1016.7 |
| 20260510150109 | 76 | 355 | 2.0 | 4.0 | 0.00 | 0.00 | 0.00 | 50 | 1016.8 |
| 20260510145603 | 76 | 15 | 2.0 | 5.0 | 0.00 | 0.00 | 0.00 | 47 | 1016.8 |
| 20260510145324 | 75 | 355 | 2.0 | 5.0 | 0.00 | 0.00 | 0.00 | 52 | 1016.7 |
| 20260510144551 | 75 | 339 | 2.0 | 5.0 | 0.00 | 0.00 | 0.00 | 54 | 1016.8 |
| 20260510144044 | 75 | 170 | 2.0 | 4.0 | 0.00 | 0.00 | 0.00 | 55 | 1016.8 |
| 20260510143538 | 74 | 342 | 2.0 | 6.0 | 0.00 | 0.00 | 0.00 | 55 | 1016.8 |
| 20260510143033 | 74 | 321 | 2.0 | 6.0 | 0.00 | 0.00 | 0.00 | 57 | 1016.7 |
| 20260510142527 | 73 | 350 | 2.0 | 5.0 | 0.00 | 0.00 | 0.00 | 59 | 1016.7 |
| 20260510142021 | 73 | 355 | 2.0 | 4.0 | 0.00 | 0.00 | 0.00 | 60 | 1016.7 |
| 20260510141516 | 72 | 9 | 1.0 | 3.0 | 0.00 | 0.00 | 0.00 | 64 | 1016.7 |
| 20260510141008 | 71 | 355 | 1.0 | 4.0 | 0.00 | 0.00 | 0.00 | 67 | 1016.8 |
| 20260510140503 | 71 | 67 | 2.0 | 4.0 | 0.00 | 0.00 | 0.00 | 68 | 1016.7 |
| 20260510135957 | 70 | 351 | 2.0 | 5.0 | 0.00 | 0.00 | 0.00 | 69 | 1016.6 |
| 20260510135451 | 70 | 350 | 1.0 | 5.0 | 0.00 | 0.00 | 0.00 | 73 | 1016.7 |
| 20260510134945 | 69 | 336 | 1.0 | 4.0 | 0.00 | 0.00 | 0.00 | 74 | 1016.7 |
| 20260510134439 | 68 | 346 | 2.0 | 4.0 | 0.00 | 0.00 | 0.00 | 77 | 1016.8 |
| 20260510134151 | 68 | 344 | 2.0 | 4.0 | 0.00 | 0.00 | 0.00 | 80 | 1016.8 |
| 20260510133427 | 67 | 327 | 2.0 | 4.0 | 0.00 | 0.00 | 0.00 | 85 | 1016.8 |
| 20260510132920 | 66 | 333 | 2.0 | 3.0 | 0.00 | 0.00 | 0.00 | 87 | 1016.6 |
| 20260510132641 | 65 | 335 | 1.0 | 4.0 | 0.00 | 0.00 | 0.00 | 90 | 1016.6 |
| 20260510131908 | 65 | 333 | 1.0 | 4.0 | 0.00 | 0.00 | 0.00 | 92 | 1016.6 |
| 20260510131402 | 65 | 313 | 1.0 | 3.0 | 0.00 | 0.00 | 0.00 | 94 | 1016.7 |
| 20260510130857 | 64 | 313 | 1.0 | 3.0 | 0.00 | 0.00 | 0.00 | 94 | 1016.6 |
| 20260510130351 | 64 | 313 | 1.0 | 3.0 | 0.00 | 0.00 | 0.00 | 94 | 1016.7 |
| 20260510125844 | 64 | 313 | 0.0 | 3.0 | 0.00 | 0.00 | 0.00 | 94 | 1016.6 |
| 20260510125339 | 63 | 298 | 1.0 | 4.0 | 0.00 | 0.00 | 0.00 | 94 | 1016.5 |
| 20260510124832 | 63 | 298 | 1.0 | 4.0 | 0.00 | 0.00 | 0.00 | 95 | 1016.6 |
| 20260510124327 | 63 | 296 | 1.0 | 2.0 | 0.00 | 0.00 | 0.00 | 95 | 1016.5 |
| 20260510123821 | 62 | 296 | 1.0 | 3.0 | 0.00 | 0.00 | 0.00 | 95 | 1016.5 |
| 20260510123533 | 62 | 296 | 1.0 | 3.0 | 0.00 | 0.00 | 0.00 | 95 | 1016.4 |
| 20260510122808 | 62 | 296 | 1.0 | 3.0 | 0.00 | 0.00 | 0.00 | 94 | 1016.3 |
| 20260510122306 | 61 | 296 | 2.0 | 3.0 | 0.00 | 0.00 | 0.00 | 94 | 1016.2 |
| 20260510121757 | 61 | 291 | 1.0 | 3.0 | 0.00 | 0.00 | 0.00 | 94 | 1016.2 |
| 20260510121251 | 61 | 290 | 0.0 | 3.0 | 0.00 | 0.00 | 0.00 | 94 | 1016.1 |
| 20260510120744 | 60 | 267 | 0.0 | 0.0 | 0.00 | 0.00 | 0.00 | 94 | 1016.1 |
| 20260510120239 | 59 | 267 | 0.0 | 0.0 | 0.00 | 0.00 | 0.00 | 94 | 1016.1 |
| 20260510115733 | 59 | 266 | 0.0 | 0.0 | 0.00 | 0.00 | 0.00 | 94 | 1016.0 |
| 20260510115227 | 58 | 266 | 0.0 | 0.0 | 0.00 | 0.00 | 0.00 | 93 | 1015.9 |
| 20260510114721 | 58 | 266 | 0.0 | 0.0 | 0.00 | 0.00 | 0.00 | 93 | 1015.8 |
| 20260510114214 | 58 | 266 | 0.0 | 0.0 | 0.00 | 0.00 | 0.00 | 92 | 1015.8 |
| 20260510113708 | 58 | 266 | 0.0 | 0.0 | 0.00 | 0.00 | 0.00 | 92 | 1015.7 |
| 20260510113204 | 58 | 266 | 0.0 | 0.0 | 0.00 | 0.00 | 0.00 | 92 | 1015.6 |
| 20260510112657 | 58 | 266 | 0.0 | 0.0 | 0.00 | 0.00 | 0.00 | 92 | 1015.4 |
| 20260510112151 | 58 | 266 | 0.0 | 0.0 | 0.00 | 0.00 | 0.00 | 92 | 1015.3 |
| 20260510111645 | 58 | 266 | 0.0 | 0.0 | 0.00 | 0.00 | 0.00 | 92 | 1015.3 |
| 20260510111139 | 58 | 266 | 0.0 | 0.0 | 0.00 | 0.00 | 0.00 | 92 | 1015.3 |
| 20260510110633 | 58 | 266 | 0.0 | 0.0 | 0.00 | 0.00 | 0.00 | 92 | 1015.3 |
| 20260510110347 | 58 | 266 | 0.0 | 0.0 | 0.00 | 0.00 | 0.00 | 92 | 1015.2 |
| 20260510105621 | 58 | 266 | 0.0 | 0.0 | 0.00 | 0.00 | 0.00 | 92 | 1015.1 |
| 20260510105115 | 58 | 266 | 0.0 | 0.0 | 0.00 | 0.00 | 0.00 | 92 | 1015.1 |
| 20260510104608 | 58 | 266 | 0.0 | 0.0 | 0.00 | 0.00 | 0.00 | 92 | 1015.1 |
| 20260510104326 | 58 | 266 | 0.0 | 0.0 | 0.00 | 0.00 | 0.00 | 92 | 1015.0 |
| 20260510103603 | 58 | 266 | 0.0 | 0.0 | 0.00 | 0.00 | 0.00 | 92 | 1014.9 |
| 20260510103100 | 58 | 266 | 0.0 | 0.0 | 0.00 | 0.00 | 0.00 | 92 | 1014.9 |
| 20260510102847 | 59 | 266 | 0.0 | 0.0 | 0.00 | 0.00 | 0.00 | 92 | 1014.7 |
| 20260510102101 | 59 | 266 | 0.0 | 0.0 | 0.00 | 0.00 | 0.00 | 92 | 1014.7 |
| 20260510101601 | 59 | 266 | 0.0 | 0.0 | 0.00 | 0.00 | 0.00 | 92 | 1014.7 |
| 20260510101101 | 59 | 266 | 0.0 | 0.0 | 0.00 | 0.00 | 0.00 | 92 | 1014.6 |
| 20260510100601 | 59 | 266 | 0.0 | 0.0 | 0.00 | 0.00 | 0.00 | 92 | 1014.5 |
| 20260510100057 | 59 | 266 | 0.0 | 0.0 | 0.00 | 0.00 | 0.00 | 92 | 1014.4 |
| 20260510095820 | 59 | 266 | 0.0 | 0.0 | 0.00 | 0.00 | 0.00 | 92 | 1014.3 |
| 20260510095057 | 59 | 266 | 0.0 | 0.0 | 0.00 | 0.00 | 0.00 | 92 | 1014.3 |
| 20260510094820 | 59 | 266 | 0.0 | 0.0 | 0.00 | 0.00 | 0.00 | 91 | 1014.3 |
| 20260510093827 | 60 | 266 | 0.0 | 0.0 | 0.00 | 0.00 | 0.00 | 91 | 1014.1 |
| 20260510093056 | 60 | 266 | 0.0 | 0.0 | 0.00 | 0.00 | 0.00 | 91 | 1014.1 |
| 20260510092556 | 60 | 266 | 0.0 | 0.0 | 0.00 | 0.00 | 0.00 | 91 | 1014.3 |
| 20260510092100 | 60 | 266 | 0.0 | 0.0 | 0.00 | 0.00 | 0.00 | 91 | 1014.0 |
| 20260510091557 | 60 | 266 | 0.0 | 0.0 | 0.00 | 0.00 | 0.00 | 91 | 1013.9 |
| 20260510091057 | 60 | 266 | 0.0 | 0.0 | 0.00 | 0.00 | 0.00 | 91 | 1013.8 |
| 20260510090554 | 60 | 266 | 0.0 | 0.0 | 0.00 | 0.00 | 0.00 | 91 | 1013.8 |
| 20260510090055 | 60 | 266 | 0.0 | 0.0 | 0.00 | 0.00 | 0.00 | 91 | 1013.7 |
| 20260510085553 | 60 | 266 | 0.0 | 0.0 | 0.00 | 0.00 | 0.00 | 91 | 1013.6 |
| 20260510085053 | 60 | 266 | 0.0 | 0.0 | 0.00 | 0.00 | 0.00 | 91 | 1013.5 |
| 20260510084550 | 61 | 266 | 0.0 | 0.0 | 0.00 | 0.00 | 0.00 | 91 | 1013.4 |
| 20260510084051 | 61 | 266 | 0.0 | 0.0 | 0.00 | 0.00 | 0.00 | 91 | 1013.4 |
| 20260510083813 | 61 | 266 | 0.0 | 0.0 | 0.00 | 0.00 | 0.00 | 91 | 1013.3 |
| 20260510083048 | 61 | 266 | 0.0 | 0.0 | 0.00 | 0.00 | 0.00 | 91 | 1013.2 |
| 20260510082546 | 61 | 266 | 0.0 | 0.0 | 0.00 | 0.00 | 0.00 | 91 | 1013.2 |
| 20260510082047 | 61 | 266 | 0.0 | 0.0 | 0.00 | 0.00 | 0.00 | 91 | 1013.2 |
| 20260510081544 | 61 | 266 | 0.0 | 1.0 | 0.00 | 0.00 | 0.00 | 91 | 1013.1 |
| 20260510081042 | 61 | 266 | 0.0 | 1.0 | 0.00 | 0.00 | 0.00 | 91 | 1013.0 |
| 20260510080542 | 61 | 266 | 0.0 | 1.0 | 0.00 | 0.00 | 0.00 | 90 | 1013.0 |
| 20260510080043 | 61 | 266 | 0.0 | 1.0 | 0.00 | 0.00 | 0.00 | 90 | 1013.0 |
| 20260510075543 | 61 | 266 | 0.0 | 0.0 | 0.00 | 0.00 | 0.00 | 90 | 1013.0 |
| 20260510075043 | 61 | 266 | 0.0 | 0.0 | 0.00 | 0.00 | 0.00 | 90 | 1013.0 |
| 20260510074805 | 61 | 266 | 0.0 | 0.0 | 0.00 | 0.00 | 0.00 | 90 | 1013.0 |
| 20260510074044 | 62 | 266 | 0.0 | 0.0 | 0.00 | 0.00 | 0.00 | 90 | 1013.0 |
| 20260510073544 | 62 | 266 | 0.0 | 0.0 | 0.00 | 0.00 | 0.00 | 90 | 1013.0 |
| 20260510073044 | 62 | 266 | 0.0 | 0.0 | 0.00 | 0.00 | 0.00 | 90 | 1013.1 |
| 20260510072544 | 62 | 266 | 0.0 | 0.0 | 0.00 | 0.00 | 0.00 | 90 | 1013.0 |
| 20260510072259 | 62 | 266 | 0.0 | 0.0 | 0.00 | 0.00 | 0.00 | 90 | 1013.0 |
| 20260510071540 | 62 | 266 | 0.0 | 0.0 | 0.00 | 0.00 | 0.00 | 90 | 1013.0 |
| 20260510071040 | 62 | 266 | 0.0 | 0.0 | 0.00 | 0.00 | 0.00 | 90 | 1012.9 |
| 20260510070539 | 62 | 266 | 0.0 | 0.0 | 0.00 | 0.00 | 0.00 | 90 | 1012.9 |
| 20260510070038 | 62 | 266 | 0.0 | 0.0 | 0.00 | 0.00 | 0.00 | 89 | 1013.0 |
| 20260510065538 | 62 | 266 | 0.0 | 0.0 | 0.00 | 0.00 | 0.00 | 89 | 1013.0 |
| 20260510065038 | 62 | 266 | 0.0 | 0.0 | 0.00 | 0.00 | 0.00 | 89 | 1012.9 |
| 20260510064538 | 62 | 266 | 0.0 | 0.0 | 0.00 | 0.00 | 0.00 | 89 | 1013.0 |
| 20260510064302 | 62 | 266 | 0.0 | 0.0 | 0.00 | 0.00 | 0.00 | 89 | 1013.0 |
| 20260510063535 | 62 | 266 | 0.0 | 0.0 | 0.00 | 0.00 | 0.00 | 89 | 1013.1 |
| 20260510063035 | 62 | 266 | 0.0 | 0.0 | 0.00 | 0.00 | 0.00 | 88 | 1013.1 |
| 20260510062535 | 62 | 266 | 0.0 | 0.0 | 0.00 | 0.00 | 0.00 | 88 | 1013.1 |
| 20260510062034 | 62 | 266 | 0.0 | 0.0 | 0.00 | 0.00 | 0.00 | 89 | 1013.0 |
| 20260510061534 | 62 | 266 | 0.0 | 0.0 | 0.00 | 0.00 | 0.00 | 88 | 1013.0 |
| 20260510061255 | 62 | 266 | 0.0 | 0.0 | 0.00 | 0.00 | 0.00 | 88 | 1013.0 |
| 20260510060535 | 62 | 266 | 0.0 | 0.0 | 0.00 | 0.00 | 0.00 | 88 | 1012.9 |
| 20260510060035 | 63 | 266 | 0.0 | 0.0 | 0.00 | 0.00 | 0.00 | 88 | 1013.0 |
| 20260510055535 | 63 | 266 | 0.0 | 0.0 | 0.00 | 0.00 | 0.00 | 88 | 1013.0 |
| 20260510055032 | 63 | 266 | 0.0 | 0.0 | 0.00 | 0.00 | 0.00 | 88 | 1013.1 |
| 20260510054531 | 63 | 266 | 0.0 | 0.0 | 0.00 | 0.00 | 0.00 | 88 | 1013.0 |
| 20260510054029 | 63 | 266 | 0.0 | 0.0 | 0.00 | 0.00 | 0.00 | 88 | 1013.0 |
| 20260510053744 | 63 | 266 | 0.0 | 0.0 | 0.00 | 0.00 | 0.00 | 88 | 1013.2 |
| 20260510053026 | 63 | 266 | 0.0 | 0.0 | 0.00 | 0.00 | 0.00 | 87 | 1013.2 |
| 20260510052526 | 63 | 266 | 0.0 | 0.0 | 0.00 | 0.00 | 0.00 | 87 | 1013.2 |
| 20260510052247 | 63 | 266 | 0.0 | 0.0 | 0.00 | 0.00 | 0.00 | 87 | 1013.1 |
| 20260510051524 | 63 | 266 | 0.0 | 0.0 | 0.00 | 0.00 | 0.00 | 87 | 1013.1 |
| 20260510051022 | 64 | 266 | 0.0 | 1.0 | 0.00 | 0.00 | 0.00 | 87 | 1013.1 |
| 20260510050520 | 64 | 266 | 0.0 | 1.0 | 0.00 | 0.00 | 0.00 | 87 | 1013.1 |
| 20260510050018 | 64 | 266 | 0.0 | 0.0 | 0.00 | 0.00 | 0.00 | 87 | 1013.1 |
| 20260510045516 | 64 | 266 | 0.0 | 0.0 | 0.00 | 0.00 | 0.00 | 87 | 1013.1 |
| 20260510045016 | 64 | 266 | 0.0 | 1.0 | 0.00 | 0.00 | 0.00 | 86 | 1013.2 |
| 20260510044514 | 64 | 266 | 0.0 | 1.0 | 0.00 | 0.00 | 0.00 | 86 | 1013.1 |
| 20260510044012 | 64 | 266 | 0.0 | 0.0 | 0.00 | 0.00 | 0.00 | 86 | 1013.0 |
| 20260510043739 | 64 | 266 | 0.0 | 0.0 | 0.00 | 0.00 | 0.00 | 86 | 1013.1 |
| 20260510043005 | 65 | 266 | 0.0 | 0.0 | 0.00 | 0.00 | 0.00 | 86 | 1013.2 |
| 20260510042738 | 65 | 266 | 0.0 | 0.0 | 0.00 | 0.00 | 0.00 | 86 | 1013.1 |
| 20260510042004 | 65 | 266 | 0.0 | 0.0 | 0.00 | 0.00 | 0.00 | 86 | 1013.2 |
| 20260510041505 | 65 | 266 | 0.0 | 0.0 | 0.00 | 0.00 | 0.00 | 86 | 1013.2 |
| 20260510041006 | 65 | 266 | 0.0 | 0.0 | 0.00 | 0.00 | 0.00 | 86 | 1013.1 |
| 20260510040502 | 65 | 266 | 0.0 | 1.0 | 0.00 | 0.00 | 0.00 | 86 | 1013.2 |
| 20260510040002 | 65 | 266 | 0.0 | 1.0 | 0.00 | 0.00 | 0.00 | 86 | 1013.3 |
| 20260510035721 | 65 | 266 | 0.0 | 1.0 | 0.00 | 0.00 | 0.00 | 85 | 1013.3 |
| 20260510035001 | 65 | 266 | 1.0 | 3.0 | 0.00 | 0.00 | 0.00 | 85 | 1013.3 |
| 20260510034721 | 65 | 266 | 1.0 | 3.0 | 0.00 | 0.00 | 0.00 | 85 | 1013.3 |
| 20260510034001 | 66 | 270 | 0.0 | 1.0 | 0.00 | 0.00 | 0.00 | 85 | 1013.2 |
| 20260510033501 | 66 | 270 | 0.0 | 2.0 | 0.00 | 0.00 | 0.00 | 86 | 1013.3 |
| 20260510033001 | 66 | 270 | 0.0 | 2.0 | 0.00 | 0.00 | 0.00 | 86 | 1013.4 |
| 20260510031956 | 66 | 269 | 0.0 | 2.0 | 0.00 | 0.00 | 0.00 | 85 | 1013.4 |
| 20260510031456 | 66 | 269 | 1.0 | 3.0 | 0.00 | 0.00 | 0.00 | 85 | 1013.3 |
| 20260510030954 | 66 | 269 | 1.0 | 3.0 | 0.00 | 0.00 | 0.00 | 85 | 1013.2 |
| 20260510030455 | 66 | 268 | 1.0 | 3.0 | 0.00 | 0.00 | 0.00 | 85 | 1013.3 |
| 20260510025954 | 66 | 268 | 1.0 | 3.0 | 0.00 | 0.00 | 0.00 | 85 | 1013.3 |
| 20260510025452 | 66 | 268 | 1.0 | 3.0 | 0.00 | 0.00 | 0.00 | 85 | 1013.3 |
| 20260510024953 | 66 | 268 | 1.0 | 3.0 | 0.00 | 0.00 | 0.00 | 85 | 1013.3 |
| 20260510024451 | 66 | 267 | 2.0 | 4.0 | 0.00 | 0.00 | 0.00 | 85 | 1013.2 |
| 20260510023950 | 66 | 262 | 1.0 | 4.0 | 0.00 | 0.00 | 0.00 | 84 | 1013.2 |
| 20260510023707 | 66 | 248 | 1.0 | 3.0 | 0.00 | 0.00 | 0.00 | 84 | 1013.3 |
| 20260510022951 | 66 | 246 | 1.0 | 2.0 | 0.00 | 0.00 | 0.00 | 84 | 1013.3 |
| 20260510022445 | 66 | 246 | 0.0 | 2.0 | 0.00 | 0.00 | 0.00 | 84 | 1013.2 |
| 20260510021942 | 66 | 245 | 0.0 | 2.0 | 0.00 | 0.00 | 0.00 | 83 | 1013.1 |
| 20260510021658 | 66 | 245 | 0.0 | 2.0 | 0.00 | 0.00 | 0.00 | 82 | 1013.2 |
| 20260510020940 | 66 | 254 | 0.0 | 1.0 | 0.00 | 0.00 | 0.00 | 82 | 1013.1 |
| 20260510020440 | 66 | 254 | 0.0 | 2.0 | 0.00 | 0.00 | 0.00 | 81 | 1013.1 |
| 20260510015937 | 66 | 254 | 1.0 | 2.0 | 0.00 | 0.00 | 0.00 | 81 | 1013.0 |
| 20260510015437 | 67 | 254 | 1.0 | 3.0 | 0.00 | 0.00 | 0.00 | 81 | 1012.9 |
| 20260510014934 | 67 | 254 | 1.0 | 3.0 | 0.00 | 0.00 | 0.00 | 80 | 1012.9 |
| 20260510014433 | 67 | 254 | 0.0 | 1.0 | 0.00 | 0.00 | 0.00 | 80 | 1012.9 |
| 20260510013930 | 67 | 254 | 0.0 | 0.0 | 0.00 | 0.00 | 0.00 | 80 | 1012.8 |
| 20260510013428 | 67 | 254 | 0.0 | 2.0 | 0.00 | 0.00 | 0.00 | 79 | 1012.7 |
| 20260510012926 | 67 | 254 | 1.0 | 2.0 | 0.00 | 0.00 | 0.00 | 79 | 1012.6 |
| 20260510012424 | 67 | 254 | 1.0 | 2.0 | 0.00 | 0.00 | 0.00 | 78 | 1012.6 |
| 20260510012140 | 68 | 254 | 0.0 | 0.0 | 0.00 | 0.00 | 0.00 | 78 | 1012.5 |
| 20260510011421 | 68 | 254 | 0.0 | 0.0 | 0.00 | 0.00 | 0.00 | 77 | 1012.3 |
| 20260510010918 | 68 | 254 | 0.0 | 0.0 | 0.00 | 0.00 | 0.00 | 77 | 1012.3 |
| 20260510010416 | 68 | 254 | 0.0 | 2.0 | 0.00 | 0.00 | 0.00 | 77 | 1012.2 |
| 20260510010139 | 69 | 254 | 0.0 | 2.0 | 0.00 | 0.00 | 0.00 | 76 | 1012.1 |
| 20260510005414 | 69 | 254 | 0.0 | 1.0 | 0.00 | 0.00 | 0.00 | 75 | 1012.1 |
| 20260510004914 | 69 | 254 | 0.0 | 0.0 | 0.00 | 0.00 | 0.00 | 75 | 1012.0 |
| 20260510004624 | 69 | 254 | 0.0 | 0.0 | 0.00 | 0.00 | 0.00 | 75 | 1012.1 |
| 20260510003356 | 70 | 254 | 0.0 | 0.0 | 0.00 | 0.00 | 0.00 | 74 | 1011.8 |
| 20260510002849 | 70 | 254 | 0.0 | 2.0 | 0.00 | 0.00 | 0.00 | 74 | 1011.7 |
| 20260510002343 | 70 | 254 | 1.0 | 2.0 | 0.00 | 0.00 | 0.00 | 74 | 1011.6 |
| 20260510001838 | 70 | 254 | 2.0 | 4.0 | 0.00 | 0.00 | 0.00 | 74 | 1011.6 |
| 20260510001332 | 70 | 254 | 2.0 | 4.0 | 0.00 | 0.00 | 0.00 | 73 | 1011.4 |
| 20260510000826 | 70 | 273 | 2.0 | 4.0 | 0.00 | 0.00 | 0.00 | 73 | 1011.4 |
| 20260510000321 | 71 | 273 | 2.0 | 4.0 | 0.00 | 0.00 | 0.00 | 73 | 1011.3 |
| 20260509235814 | 71 | 269 | 2.0 | 4.0 | 0.00 | 0.00 | 0.00 | 73 | 1011.3 |
| 20260509235307 | 71 | 290 | 1.0 | 3.0 | 0.00 | 0.00 | 0.00 | 72 | 1011.3 |
| 20260509234802 | 71 | 290 | 0.0 | 3.0 | 0.00 | 0.00 | 0.00 | 72 | 1011.3 |
| 20260509234256 | 71 | 290 | 1.0 | 3.0 | 0.00 | 0.00 | 0.00 | 72 | 1011.4 |
| 20260509233749 | 71 | 290 | 2.0 | 4.0 | 0.00 | 0.00 | 0.00 | 71 | 1011.3 |
| 20260509233245 | 71 | 290 | 2.0 | 4.0 | 0.00 | 0.00 | 0.00 | 71 | 1011.3 |
| 20260509232737 | 71 | 261 | 2.0 | 5.0 | 0.00 | 0.00 | 0.00 | 71 | 1011.3 |
| 20260509232232 | 72 | 267 | 2.0 | 5.0 | 0.00 | 0.00 | 0.00 | 71 | 1011.2 |
| 20260509231725 | 72 | 251 | 1.0 | 3.0 | 0.00 | 0.00 | 0.00 | 71 | 1011.3 |
| 20260509231220 | 72 | 253 | 1.0 | 3.0 | 0.00 | 0.00 | 0.00 | 71 | 1011.2 |
| 20260509230933 | 72 | 253 | 0.0 | 3.0 | 0.00 | 0.00 | 0.00 | 71 | 1011.2 |
| 20260509230207 | 72 | 252 | 1.0 | 2.0 | 0.00 | 0.00 | 0.00 | 70 | 1011.2 |
| 20260509225702 | 72 | 252 | 1.0 | 5.0 | 0.00 | 0.00 | 0.00 | 70 | 1011.1 |
| 20260509225155 | 72 | 208 | 2.0 | 5.0 | 0.00 | 0.00 | 0.00 | 71 | 1011.1 |
| 20260509224651 | 72 | 239 | 2.0 | 4.0 | 0.00 | 0.00 | 0.00 | 71 | 1011.0 |